Defiance, OH

8:00 AM EDT on October 22, 2019 (GMT -0400)
Defiance Memorial

Weather History for KDFI - September, 2019

Change the Weather History Date:

Friday, September 20, 2019

  Actual Average Record
Temperature  
Mean Temperature 74 °F -  
Max Temperature 87 °F 75 °F 94 °F (1940)
Min Temperature 61 °F 52 °F 1 °F (2014)
Cooling Degree Days 8    
Growing Degree Days 24 (Base 50)    
Moisture  
Dew Point 63 °F    
Average Humidity 76    
Maximum Humidity 93    
Minimum Humidity 46    
Precipitation  
Precipitation 0.00 in - - ()
Sea Level Pressure  
Sea Level Pressure 30.13 in    
Wind  
Wind Speed 0 mph (South)    
Max Wind Speed 4 mph    
Max Gust Speed -    
Visibility 8 miles    
Events      
Averages and records for this station are not official NWS values.
T = Trace of Precipitation, MM = Missing Value Source: NWS Daily Summary

Daily Weather History Graph

Daily Weather History Graph

Search for Another Location

Airport or City:

Astronomy

Sep. 20, 2019 Rise Set
Actual Time 7:22 AM EDT 7:38 PM EDT
Civil Twilight 6:55 AM EDT 8:06 PM EDT
Nautical Twilight 6:22 AM EDT 8:38 PM EDT
Astronomical Twilight 5:49 AM EDT 9:11 PM EDT
Moon 11:24 PM EDT (9/20) 1:30 PM EDT (9/20)
Length of Visible Light 13h 11m
Length of Day
12h 15m
Waning Gibbous, 65% of the Moon is Illuminated
Sep 20
Waning Gibbous
Sep 21
Last Quarter
Sep 28
New
Oct 5
First Quarter
Oct 13
Full

Hourly Weather History & Observations

Time (EDT) Temp. Heat Index Dew Point Humidity Pressure Visibility Wind Dir Wind Speed Gust Speed Precip Events Conditions
12:53 AM 66.0 °F - 62.1 °F 87% 30.09 in 10.0 mi Calm Calm - N/A   Clear
1:53 AM 64.0 °F - 61.0 °F 90% 30.10 in 9.0 mi Calm Calm - N/A   Clear
2:53 AM 63.0 °F - 60.1 °F 90% 30.11 in 6.0 mi Calm Calm - N/A   Clear
3:53 AM 63.0 °F - 61.0 °F 93% 30.11 in 8.0 mi Calm Calm - N/A   Clear
4:53 AM 63.0 °F - 60.1 °F 90% 30.12 in 6.0 mi Calm Calm - N/A   Clear
5:23 AM 62.1 °F - 60.1 °F 93% 30.13 in 2.0 mi Calm Calm - N/A   Clear
5:34 AM 63.0 °F - 60.1 °F 90% 30.13 in 3.0 mi Calm Calm - N/A   Clear
5:53 AM 63.0 °F - 61.0 °F 93% 30.13 in 4.0 mi Calm Calm - N/A   Clear
6:06 AM 62.1 °F - 59.0 °F 90% 30.14 in 3.0 mi Calm Calm - N/A   Clear
6:53 AM 61.0 °F - 59.0 °F 93% 30.13 in 4.0 mi Calm Calm - N/A   Clear
7:53 AM 61.0 °F - 57.9 °F 90% 30.14 in 6.0 mi Calm Calm - N/A   Clear
8:53 AM 66.9 °F - 64.0 °F 90% 30.16 in 8.0 mi Calm Calm - N/A   Clear
9:53 AM 71.1 °F - 64.9 °F 81% 30.16 in 10.0 mi SW 3.5 mph - N/A   Clear
10:53 AM 77.0 °F - 66.9 °F 71% 30.15 in 10.0 mi Calm Calm - N/A   Clear
11:53 AM 81.0 °F 83.8 °F 68.0 °F 65% 30.15 in 10.0 mi Calm Calm - N/A   Clear
12:53 PM 84.0 °F 85.8 °F 64.9 °F 53% 30.14 in 10.0 mi Calm Calm - N/A   Clear
1:53 PM 84.0 °F 85.8 °F 64.9 °F 53% 30.13 in 10.0 mi SE 3.5 mph - N/A   Clear
2:53 PM 84.9 °F 86.1 °F 64.0 °F 49% 30.11 in 10.0 mi Calm Calm - N/A   Clear
3:53 PM 84.9 °F 85.9 °F 63.0 °F 48% 30.11 in 10.0 mi Calm Calm - N/A   Mostly Cloudy
4:53 PM 86.0 °F 86.8 °F 63.0 °F 46% 30.09 in 10.0 mi SSW 3.5 mph - N/A   Partly Cloudy
5:53 PM 86.0 °F 86.8 °F 63.0 °F 46% 30.10 in 10.0 mi Variable 3.5 mph - N/A   Partly Cloudy
6:53 PM 82.9 °F 84.4 °F 64.0 °F 53% 30.11 in 10.0 mi Calm Calm - N/A   Clear
7:53 PM 75.9 °F - 68.0 °F 76% 30.12 in 10.0 mi Calm Calm - N/A   Clear
8:53 PM 73.9 °F - 66.9 °F 79% 30.13 in 10.0 mi Calm Calm - N/A   Clear
9:53 PM 71.1 °F - 66.9 °F 87% 30.14 in 10.0 mi Calm Calm - N/A   Clear
10:53 PM 72.0 °F - 66.9 °F 84% 30.14 in 10.0 mi Calm Calm - N/A   Overcast
11:53 PM 72.0 °F - 66.9 °F 84% 30.14 in 10.0 mi Calm Calm - N/A   Mostly Cloudy